Regional Weather Roundup
Issued by NWS

Home | Current Version | Previous Version | Graphics & Text | Print | Product List | Glossary On
Versions: 1 2 3 4 5 6 7 8 9 10 11 12 13 14 15 16 17 18 19 20 21 22 23 24 25 26 27 28 29 30 31 32 33 34 35 36 37 38 39 40 41 42 43 44 45 46 47 48 49 50
000
ASUS43 KMPX 211001
RWRMN
WEATHER ROUNDUP FOR MINNESOTA
NATIONAL WEATHER SERVICE TWIN CITIES/CHANHASSEN MN
500 AM CDT FRI JUL 21 2017


NOTE: "FAIR" INDICATES FEW OR NO CLOUDS BELOW 12,000 FEET WITH NO
SIGNIFICANT WEATHER AND/OR OBSTRUCTIONS TO VISIBILITY. N/A MEANS
CURRENT SKY AND/OR WEATHER CONDITIONS ARE NOT AVAILABLE.

MNZ060>063-068>070-211100-
   Twin Cities Metro

CITY           SKY/WX    TMP DP  RH WIND       PRES   REMARKS
TWIN CITIES    PTCLDY    70  67  90 SE7       29.92F
ST PAUL        PTCLDY    67  67 100 SE5       29.93F FOG
CRYSTAL        PTCLDY    64  61  90 SE6       29.90F FOG
BLAINE         MOCLDY    70  70 100 SE6       29.91F FOG
LAKEVILLE      FOG       64  64 100 CALM      29.94S VSB 1/4
EDEN PRAIRIE   CLEAR     69  67  93 E7        29.91F FOG
SOUTH ST PAUL  CLEAR     66  66  99 CALM      29.93F FOG
LAKE ELMO      RAIN      66  66 100 CALM      29.94F VSB<1/4
$$
MNZ001>005-007-008-013>017-022>024-027-028-211100-
   Northwest Minnesota

CITY           SKY/WX    TMP DP  RH WIND       PRES   REMARKS
BEMIDJI        CLOUDY    66  61  83 E3        29.93F
HALLOCK        CLOUDY    68  61  77 E9        29.85F
ROSEAU         CLOUDY    63  57  82 E3        29.92F
WARROAD        CLOUDY    64  61  88 S8        29.93F
CROOKSTON      CLOUDY    70  64  83 SE8       29.86F
FOSSTON        CLOUDY    64  57  77 CALM      29.90F
DETROIT LAKES  CLOUDY    72  66  83 S7        29.91R
MOORHEAD       CLOUDY    73  68  83 SE14      29.84F
PARK RAPIDS    CLOUDY    70  65  84 SE8       29.92F
MAHNOMEN       FAIR      70  65  85 SE7       29.87F
$$
MNZ006-009>011-018-025>026-211100-
   North Central Minnesota

CITY           SKY/WX    TMP DP  RH WIND       PRES   REMARKS
BAUDETTE       CLOUDY    60  57  89 CALM      29.94F
FLAG ISLAND    CLOUDY    66  63  88 SE3       29.93R
INTL FALLS     CLOUDY    58  56  93 CALM      29.95R
WASKISH        CLOUDY    63  55  77 E5        29.95R
BIG FORK       MOCLDY    59  55  88 CALM      29.96R
LONGVILLE      CLOUDY    63  61  94 CALM      29.94S FOG
GRAND RAPIDS   CLOUDY    64  61  90 SE5       29.97S
CRANE LAKE     CLOUDY    54  54 100 CALM      29.97S
ORR            CLOUDY    55  52  88 CALM      29.94S
COOK           CLOUDY    55  55 100 CALM      29.97S
WALKER         FAIR      65  63  93 CALM      29.93S
$$
MNZ012-019>021-037-211100-
   Northeast Minnesota

CITY           SKY/WX    TMP DP  RH WIND       PRES   REMARKS
DULUTH         CLOUDY    64  60  87 CALM      29.95F
ELY            PTCLDY    54  52  94 CALM      29.98S
HIBBING        CLOUDY    53  53 100 CALM      29.96S FOG
EVELETH          N/A     58  55  90 NE3       29.97F FOG
DULUTH HARBOR  CLOUDY    68  64  88 CALM      29.93F
TWO HARBORS    CLOUDY    63  57  82 CALM      29.93F
SILVER BAY     MOCLDY    59  57  94 CALM      29.94F
GRAND MARAIS     N/A     58  53  84 CALM      29.95S
G MARAIS ARPRT PTCLDY    55  48  76 NE3       30.00R
$$
MNZ029>031-032-039>041-046>048-054>057-064-211100-
   West Central Minnesota

CITY           SKY/WX    TMP DP  RH WIND       PRES   REMARKS
FERGUS FALLS   CLOUDY    73  68  83 SE14      29.86F
WHEATON        CLOUDY    70  68  94 E10       29.84F
MORRIS         CLOUDY    72  68  88 SE9       29.85F
ALEXANDRIA     CLOUDY    69  67  93 E7        29.92F
ELBOW LAKE     FAIR      71  69  95 NE5       29.91R
WADENA         MOCLDY    66  66 100 S9        29.92F
GLENWOOD       PTCLDY    66  66 100 E5        29.91S FOG
BENSON         CLOUDY    72  68  88 S5        29.88F
ORTONVILLE     CLOUDY    70  68  94 MISG      29.84F FOG
MADISON        PTCLDY    72  72 100 CALM      29.85F FOG
WILLMAR        FAIR      70  70 100 E8        29.89F
$$
MNZ033>034-036-042>043-049>051-058-059-211100-
   Central Minnesota

CITY           SKY/WX    TMP DP  RH WIND       PRES   REMARKS
ST CLOUD       FOG       62  62 100 CALM      29.92F VSB 3/4
SAUK CENTRE    FAIR      65  65  99 E5        29.91F FOG
PAYNESVILLE    PTCLDY    70  68  95 SE7       29.90F
AITKIN         MOCLDY    63  61  94 CALM      29.93S FOG
PINE RIVER     CLOUDY    66  66 100 MISG      29.97F FOG
BRAINERD       CLOUDY    65  64  97 CALM      29.93F
STAPLES        CLOUDY    64  64 100 CALM      29.94S
LONG PRAIRIE   FAIR      64  64 100 CALM      29.93S
LITTLE FALLS   CLOUDY    63  61  94 CALM      29.92F FOG
LITCHFIELD       N/A     68  68 100 CALM      29.92F FOG
BUFFALO        CLEAR     64  62  93 CALM      29.92F FOG
MAPLE LAKE     FOG       67  67  99 CALM      29.92F VSB 1
HUTCHINSON     CLOUDY    68  67  99 E6        29.91F FOG
$$
MNZ037-044-045-052-053-211100-
   East Central Minnesota

CITY           SKY/WX    TMP DP  RH WIND       PRES   REMARKS
PRINCETON      PTCLDY    64  63  94 CALM      29.93S FOG
MORA             N/A     64  64 100 CALM      29.96S FOG
CAMBRIDGE      PTCLDY    70  64  83 CALM      29.92S
RUSH CITY      CLOUDY    65  64  94 CALM      29.94F
MOOSE LAKE     CLOUDY    61  59  94 CALM      29.92F FOG
HINCKLEY       FAIR      63  63 100 CALM      29.95F
CLOQUET        CLOUDY    63  59  88 CALM      29.96R
MCGREGOR       MOCLDY    64  63  94 CALM      29.95S
$$
MNZ071>073-080-081-089-090-097-098-211100-
   Southwest Minnesota

CITY           SKY/WX    TMP DP  RH WIND       PRES   REMARKS
MONTEVIDEO     PTCLDY    66  66 100 S7        29.86F FOG
GRANITE FALLS  CLEAR     70  69  95 E6        29.87F
CANBY          FOG       67  67  97 CALM      29.87F VSB 1/4
MARSHALL       PTCLDY    70  69  97 SE5       29.86F
REDWOOD FALLS  CLOUDY    69  67  93 E6        29.86F
OLIVIA         PTCLDY    70  68  94 E5        29.88F
PIPESTONE      CLOUDY    73  72  94 SE6       29.86F
WINDOM         PTCLDY    73  70  88 SE5       29.88F
WORTHINGTON    MOCLDY    72  71  97 SE7       29.88F
JACKSON        CLOUDY    72  70  94 CALM      29.88F
TRACY          CLOUDY    69  69 100 NE3       29.87F FOG
SLAYTON        CLOUDY    71  69  93 SE7       29.90F
$$
MNZ065>067-074>077-082>085-091>093-211100-
   South Central Minnesota

CITY           SKY/WX    TMP DP  RH WIND       PRES   REMARKS
MANKATO        CLEAR     70  68  93 SE12      29.89F
NEW ULM        PTCLDY    70  66  88 E7        29.88F
ST JAMES       CLOUDY    70  68  94 E7        29.88F FOG
FAIRMONT       MOCLDY    71  70  96 E6        29.89F
GLENCOE        FOG       66  66 100 E5        29.91F VSB 1/4
FARIBAULT      CLEAR     64  64 100 E3        29.93F
OWATONNA       CLOUDY    66  64  94 SE7       29.92F
WASECA         CLEAR     68  64  88 E7        29.92F
ALBERT LEA     CLOUDY    72  66  83 SE5         N/A
$$
MNZ078>079-086>088-094>096-211100-
   Southeast Minnesota

CITY           SKY/WX    TMP DP  RH WIND       PRES   REMARKS
ROCHESTER      CLOUDY    64  64 100 E7        29.96F
RED WING       PTCLDY    66  64  94 E3        29.94F
STANTON        FOG       62  61  96 E3        29.93S VSB 1/2
DODGE CENTER   CLOUDY    66  64  94 E6        29.95F
WINONA         CLOUDY    70  68  94 CALM      29.96F FOG
AUSTIN         CLOUDY    66  64  94 E7        29.92F
PRESTON        CLOUDY    66  64  93 E7        29.96S
$$
ABBREVIATIONS USED IN REMARKS
   TC - TEMPERATURES IN CELSIUS
  WCI - WIND CHILL INDEX
   HX - HEAT INDEX
  VSB - VISIBILITY
$$




USA.gov is the U.S. government's official web portal to all federal, state and local government web resources and services.